Columbia Airport, CA

10:25 PM PST on December 15, 2019 (GMT -0800)
Columbia Airport

Weather History for KO22 - November, 2019

Change the Weather History Date:

Thursday, November 14, 2019

  Actual Average (WUND) Record (WUND)
Temperature  
Mean Temperature 58 °F -  
Max Temperature 71 °F - - (-1)
Min Temperature 44 °F - - (-1)
Degree Days  
Heating Degree Days 8    
Growing Degree Days 8 (Base 50)    
Moisture  
Dew Point 38 °F    
Average Humidity 54    
Maximum Humidity 87    
Minimum Humidity 27    
Precipitation  
Precipitation 0.00 in - - ()
Sea Level Pressure  
Sea Level Pressure 30.07 in    
Wind  
Wind Speed 1 mph ()    
Max Wind Speed 9 mph    
Max Gust Speed 13 mph    
Visibility 10.0 miles    
Events      
Averages and records for this station are not official NWS values.
T = Trace of Precipitation, MM = Missing Value Source: Averaged Metar Reports

Daily Weather History Graph

Daily Weather History Graph

Search for Another Location

Airport or City:

Astronomy

Nov. 14, 2019 Rise Set
Actual Time 6:41 AM PST 4:50 PM PST
Civil Twilight 6:13 AM PST 5:18 PM PST
Nautical Twilight 5:41 AM PST 5:50 PM PST
Astronomical Twilight 5:10 AM PST 6:21 PM PST
Moon 6:41 PM PST (11/14) 8:40 AM PST (11/14)
Length of Visible Light 11h 05m
Length of Day
10h 09m
Waning Gibbous, 95% of the Moon is Illuminated
Nov 14
Waning Gibbous
Nov 19
Last Quarter
Nov 26
New
Dec 3
First Quarter
Dec 11
Full

Hourly Weather History & Observations

Time (PST) Temp. Dew Point Humidity Pressure Visibility Wind Dir Wind Speed Gust Speed Precip Events Conditions
12:15 AM 53.6 °F 33.8 °F 47% 30.02 in 10.0 mi Calm Calm - N/A   Clear
12:35 AM 51.8 °F 33.8 °F 50% 30.02 in 10.0 mi Calm Calm - N/A   Clear
12:55 AM 51.8 °F 33.8 °F 50% 30.03 in 10.0 mi Calm Calm - N/A   Clear
1:15 AM 51.8 °F 33.8 °F 50% 30.03 in 10.0 mi Calm Calm - N/A   Clear
1:35 AM 51.8 °F 33.8 °F 50% 30.04 in 10.0 mi Calm Calm - N/A   Clear
1:55 AM 51.8 °F 33.8 °F 50% 30.04 in 10.0 mi Calm Calm - N/A   Clear
2:15 AM 51.8 °F 33.8 °F 50% 30.03 in 10.0 mi Calm Calm - N/A   Clear
2:35 AM 51.8 °F 33.8 °F 50% 30.02 in 10.0 mi Calm Calm - N/A   Clear
2:55 AM 51.8 °F 33.8 °F 50% 30.03 in 10.0 mi Calm Calm - N/A   Clear
3:15 AM 51.8 °F 33.8 °F 50% 30.02 in 10.0 mi Calm Calm - N/A   Clear
3:35 AM 51.8 °F 33.8 °F 50% 30.02 in 10.0 mi Variable 4.6 mph - N/A   Clear
3:55 AM 53.6 °F 33.8 °F 47% 30.01 in 10.0 mi Calm Calm - N/A   Clear
4:15 AM 51.8 °F 33.8 °F 50% 30.03 in 10.0 mi WSW 4.6 mph - N/A   Clear
4:55 AM 51.8 °F 33.8 °F 50% 30.03 in 10.0 mi Calm Calm - N/A   Clear
5:15 AM 51.8 °F 33.8 °F 50% 30.02 in 10.0 mi Calm Calm - N/A   Clear
5:35 AM 50.0 °F 33.8 °F 54% 30.04 in 10.0 mi Calm Calm - N/A   Clear
5:55 AM 51.8 °F 33.8 °F 50% 30.03 in 10.0 mi Variable 3.5 mph - N/A   Clear
6:15 AM 50.0 °F 33.8 °F 54% 30.04 in 10.0 mi Calm Calm - N/A   Clear
6:35 AM 48.2 °F 33.8 °F 58% 30.04 in 10.0 mi Calm Calm - N/A   Clear
6:55 AM 48.2 °F 33.8 °F 58% 30.04 in 10.0 mi Calm Calm - N/A   Clear
7:15 AM 48.2 °F 33.8 °F 58% 30.05 in 10.0 mi Calm Calm - N/A   Clear
7:35 AM 50.0 °F 33.8 °F 54% 30.05 in 10.0 mi Calm Calm - N/A   Clear
7:55 AM 50.0 °F 33.8 °F 54% 30.06 in 10.0 mi Calm Calm - N/A   Clear
8:15 AM 53.6 °F 35.6 °F 51% 30.07 in 10.0 mi Calm Calm - N/A   Clear
8:35 AM 55.4 °F 35.6 °F 47% 30.07 in 10.0 mi Calm Calm - N/A   Clear
9:15 AM 64.4 °F 35.6 °F 34% 30.07 in 10.0 mi Calm Calm - N/A   Clear
9:35 AM 64.4 °F 35.6 °F 34% 30.08 in 10.0 mi Variable 4.6 mph 11.5 mph N/A   Clear
9:55 AM 64.4 °F 35.6 °F 34% 30.08 in 10.0 mi South 4.6 mph - N/A   Clear
10:15 AM 66.2 °F 37.4 °F 35% 30.09 in 10.0 mi South 4.6 mph - N/A   Clear
10:35 AM 66.2 °F 39.2 °F 37% 30.09 in 10.0 mi Variable 5.8 mph - N/A   Clear
10:55 AM 68.0 °F 37.4 °F 33% 30.08 in 10.0 mi Variable 4.6 mph - N/A   Clear
11:15 AM 68.0 °F 37.4 °F 33% 30.08 in 10.0 mi Calm Calm - N/A   Clear
11:35 AM 71.6 °F 35.6 °F 27% 30.08 in 10.0 mi Variable 3.5 mph - N/A   Clear
11:55 AM 69.8 °F 37.4 °F 31% 30.07 in 10.0 mi Variable 6.9 mph - N/A   Clear
12:15 PM 71.6 °F 39.2 °F 31% 30.07 in 10.0 mi Variable 4.6 mph 11.5 mph N/A   Clear
12:55 PM 71.6 °F 35.6 °F 27% 30.06 in 10.0 mi South 6.9 mph - N/A   Clear
1:15 PM 71.6 °F 37.4 °F 29% 30.06 in 10.0 mi SSW 5.8 mph - N/A   Clear
1:55 PM 69.8 °F 41.0 °F 35% 30.06 in 10.0 mi SW 5.8 mph - N/A   Clear
2:15 PM 69.8 °F 41.0 °F 35% 30.06 in 10.0 mi South 5.8 mph 12.7 mph N/A   Clear
2:35 PM 68.0 °F 42.8 °F 40% 30.07 in 10.0 mi SSW 5.8 mph - N/A   Clear
2:55 PM 66.2 °F 42.8 °F 43% 30.08 in 10.0 mi Variable 4.6 mph - N/A   Clear
3:15 PM 64.4 °F 44.6 °F 49% 30.09 in 10.0 mi SW 9.2 mph - N/A   Clear
3:35 PM 62.6 °F 44.6 °F 52% 30.09 in 10.0 mi SW 4.6 mph - N/A   Clear
4:15 PM 62.6 °F 42.8 °F 48% 30.10 in 9.0 mi Calm Calm - N/A   Clear
4:35 PM 60.8 °F 44.6 °F 55% 30.10 in 10.0 mi WSW 4.6 mph - N/A   Clear
4:55 PM 59.0 °F 44.6 °F 59% 30.10 in 10.0 mi Calm Calm - N/A   Clear
5:15 PM 55.4 °F 44.6 °F 67% 30.10 in 10.0 mi Calm Calm - N/A   Clear
5:35 PM 55.4 °F 44.6 °F 67% 30.10 in 10.0 mi Calm Calm - N/A   Clear
5:55 PM 53.6 °F 44.6 °F 72% 30.11 in 10.0 mi Calm Calm - N/A   Clear
6:15 PM 53.6 °F 44.6 °F 72% 30.11 in 10.0 mi Calm Calm - N/A   Clear
6:55 PM 50.0 °F 42.8 °F 76% 30.11 in 10.0 mi Calm Calm - N/A   Clear
7:15 PM 50.0 °F 44.6 °F 82% 30.11 in 10.0 mi Calm Calm - N/A   Clear
7:35 PM 50.0 °F 42.8 °F 76% 30.11 in 10.0 mi Calm Calm - N/A   Clear
8:15 PM 48.2 °F 42.8 °F 82% 30.12 in 10.0 mi Calm Calm - N/A   Scattered Clouds
8:35 PM 48.2 °F 42.8 °F 82% 30.13 in 10.0 mi Calm Calm - N/A   Scattered Clouds
8:55 PM 48.2 °F 42.8 °F 82% 30.14 in 10.0 mi Variable 3.5 mph - N/A   Mostly Cloudy
9:55 PM 46.4 °F 42.8 °F 87% 30.15 in 10.0 mi Calm Calm - N/A   Clear
10:15 PM 44.6 °F 41.0 °F 87% 30.15 in 10.0 mi Calm Calm - N/A   Mostly Cloudy
10:55 PM 44.6 °F 41.0 °F 87% 30.15 in 10.0 mi North - - N/A   Partly Cloudy
11:15 PM 44.6 °F 41.0 °F 87% 30.15 in 10.0 mi Calm Calm - N/A   Mostly Cloudy
11:55 PM 44.6 °F 41.0 °F 87% 30.15 in 10.0 mi Calm Calm - N/A   Mostly Cloudy